Location: Cosy Dell
(34.2789°N, 117.4537°W)
Time: 20:06:23
(UTC+00:00)

UNK - Pass Details

Date: 14 July 2020
Orbit: 667 x 686 km, 98.1° (Epoch: 13 August)

Event Time Altitude Azimuth Distance (km) Brightness Sun altitude
Exits shadow 09:44:47 51° 349° (N) 848 4.4 -28.4°
Drops below altitude 10° 09:48:15 10° 348° (NNW) 2,117 6.9 -28.1°
Sets 09:50:30 0° 348° (NNW) 3,038 7.8 -27.8°
